Location: Frankfurt am Main
(50.1109°N, 8.6821°E)
Time: 01:30:55
(UTC+02:00)

ISS - Visible Passes

Search period start: 28 October 2021 00:00
Search period end: 06 November 2021 23:00
Orbit: 417 x 423 km, 51.6° (Epoch: 27 October)

Date Brightness Start Highest point End Pass type
(mag) Time Alt. Az. Time Alt. Az. Time Alt. Az.
28 Oct -2.0 05:35:41 31° ESE 05:35:41 31° ESE 05:37:52 10° E visible
28 Oct -3.7 07:08:40 15° W 07:11:24 73° N 07:14:46 10° ENE visible
29 Oct -0.2 04:50:28 10° E 04:50:28 10° E 04:50:29 10° E visible
29 Oct -3.9 06:23:26 55° W 06:24:06 85° NNW 06:27:29 10° ENE visible
30 Oct -2.1 05:38:09 34° E 05:38:09 34° E 05:40:12 10° ENE visible
30 Oct -3.6 07:11:08 16° W 07:13:45 65° N 07:17:07 10° E visible
31 Oct -0.1 03:52:51 10° ENE 03:52:51 10° ENE 03:52:54 10° ENE visible
31 Oct -3.7 05:25:49 52° WNW 05:26:25 66° N 05:29:48 10° E visible
01 Nov -2.0 04:40:29 32° ENE 04:40:29 32° ENE 04:42:29 10° ENE visible
01 Nov -3.7 06:13:28 16° WNW 06:16:05 76° N 06:19:27 10° E visible
02 Nov -0.1 03:55:08 10° ENE 03:55:08 10° ENE 03:55:10 10° ENE visible
02 Nov -3.7 05:28:06 52° NW 05:28:45 68° N 05:32:06 10° E visible
03 Nov -2.0 04:42:45 32° ENE 04:42:45 32° ENE 04:44:46 10° E visible
03 Nov -3.7 06:15:44 16° WNW 06:18:18 72° SSW 06:21:40 10° ESE visible
04 Nov -3.9 05:30:24 58° WNW 05:31:00 90° NNE 05:34:22 10° ESE visible
05 Nov -2.0 04:45:05 32° E 04:45:05 32° E 04:47:03 10° E visible
05 Nov -2.9 06:18:04 16° W 06:20:22 37° SSW 06:23:30 10° SE visible
06 Nov -3.5 05:32:48 50° SW 05:33:07 52° SSW 05:36:24 10° SE visible
